GW4497 Weather Reports


time (UTC)temp
C
wind
direction
speed
KPH
gust
KPH
rain 1hr
cm
rain 24hr
cm
rain mn
cm
humidity
%
barometer
mb
20260510091503 18 252 9.7 19.3 0.00 1.37 0.00 72 1012.3
20260510091003 17 243 11.3 27.4 0.00 1.37 0.00 74 1012.5
20260510090503 17 248 11.3 29.0 0.00 1.37 0.00 75 1012.2
20260510090008 17 264 9.7 29.0 0.00 1.37 0.00 76 1012.5
20260510085503 16 267 8.0 20.9 0.00 1.37 0.00 76 1012.5
20260510085003 17 208 6.4 17.7 0.00 1.37 0.00 76 1012.5
20260510084503 16 193 6.4 17.7 0.00 1.37 0.00 77 1012.6
20260510084003 16 227 4.8 19.3 0.00 1.37 0.00 78 1012.6
20260510083503 16 204 6.4 19.3 0.00 1.37 0.00 79 1012.2
20260510083003 16 199 6.4 16.1 0.00 1.37 0.00 80 1012.5
20260510082503 16 262 8.0 20.9 0.00 1.37 0.00 81 1012.3
20260510082003 16 273 9.7 20.9 0.00 1.37 0.00 81 1012.5
20260510081503 16 263 8.0 17.7 0.00 1.37 0.00 81 1012.2
20260510081003 15 262 9.7 32.2 0.00 1.37 0.00 81 1012.3
20260510080503 15 263 9.7 32.2 0.00 1.37 0.00 82 1012.6
20260510080003 15 272 12.9 29.0 0.00 1.37 0.00 82 1012.3
20260510075503 15 275 12.9 29.0 0.00 1.37 0.00 82 1012.3
20260510075003 15 272 11.3 22.5 0.00 1.37 0.00 82 1012.2
20260510074503 15 269 11.3 24.1 0.00 1.37 0.00 82 1012.5
20260510074003 14 269 12.9 24.1 0.00 1.37 0.00 82 1012.6
20260510073503 14 270 11.3 24.1 0.00 1.37 0.00 82 1012.5
20260510073003 14 269 11.3 20.9 0.00 1.37 0.00 82 1012.6
20260510072503 14 269 11.3 20.9 0.00 1.37 0.00 82 1012.1
20260510072003 14 270 9.7 17.7 0.00 1.37 0.00 82 1012.5
20260510071503 14 275 8.0 17.7 0.00 1.37 0.00 82 1012.1
20260510071003 14 285 8.0 17.7 0.00 1.37 0.00 83 1012.2
20260510070717 14 289 6.4 14.5 0.00 1.37 0.00 84 1012.2
20260510070003 13 276 4.8 12.9 0.00 1.37 0.00 85 1012.0
20260510065503 13 267 4.8 11.3 0.00 1.37 0.00 87 1012.3
20260510065003 13 271 3.2 9.7 0.00 1.37 0.00 89 1012.2
20260510064503 13 346 1.6 4.8 0.00 1.37 0.00 90 1012.2
20260510064003 13 37 3.2 9.7 0.00 1.37 0.00 91 1012.1
20260510063503 12 85 3.2 9.7 0.00 1.37 0.00 92 1012.2
20260510063003 12 54 3.2 8.0 0.00 1.37 0.00 93 1012.2
20260510062503 12 347 4.8 8.0 0.00 1.37 0.00 93 1012.1
20260510062003 12 359 4.8 8.0 0.00 1.37 0.00 93 1012.0
20260510061503 12 32 3.2 6.4 0.00 1.37 0.00 94 1012.1
20260510061003 12 48 1.6 4.8 0.00 1.37 0.00 94 1012.1
20260510060503 12 155 1.6 4.8 0.00 1.37 0.00 94 1012.1
20260510060003 12 145 3.2 4.8 0.00 1.37 0.00 94 1012.1
20260510055717 11 144 3.2 4.8 0.00 1.37 0.00 94 1012.0
20260510055003 12 101 1.6 4.8 0.00 1.37 0.00 94 1012.0
20260510054503 11 25 1.6 4.8 0.00 1.37 0.00 94 1012.2
20260510054003 11 311 1.6 4.8 0.00 1.37 0.00 94 1012.0
20260510053503 11 309 1.6 4.8 0.00 1.37 0.00 94 1012.0
20260510053003 11 325 1.6 8.0 0.00 1.37 0.00 94 1012.1
20260510052716 11 328 3.2 8.0 0.00 1.37 0.00 94 1012.1
20260510052003 11 314 3.2 8.0 0.00 1.37 0.00 94 1012.2
20260510051503 11 326 3.2 8.0 0.00 1.37 0.00 94 1012.2
20260510051003 11 322 3.2 8.0 0.00 1.37 0.00 94 1012.2
20260510050503 11 311 3.2 11.3 0.00 1.37 0.00 94 1012.1
20260510050003 11 277 3.2 11.3 0.00 1.37 0.00 94 1012.1
20260510045503 11 242 3.2 8.0 0.00 1.37 0.00 94 1012.1
20260510045217 11 259 1.6 8.0 0.00 1.37 0.00 94 1012.0
20260510044503 11 217 1.6 6.4 0.00 1.37 0.00 94 1012.0
20260510044003 11 149 1.6 6.4 0.00 1.37 0.00 94 1011.9
20260510043503 11 147 3.2 6.4 0.00 1.37 0.00 94 1012.2
20260510043004 11 149 3.2 6.4 0.00 1.37 0.00 94 1012.3
20260510042503 11 136 3.2 6.4 0.00 1.37 0.00 94 1012.1
20260510042003 12 133 4.8 6.4 0.00 1.37 0.00 94 1012.1
20260510041503 11 151 3.2 6.4 0.00 1.37 0.00 94 1012.1
20260510041003 12 297 1.6 4.8 0.00 1.37 0.00 94 1012.1
20260510040503 12 312 1.6 6.4 0.00 1.37 0.00 94 1012.2
20260510040003 12 327 3.2 6.4 0.00 1.37 0.00 94 1012.0
20260510035503 12 33 1.6 6.4 0.00 1.37 0.00 94 1012.1
20260510035003 12 57 1.6 4.8 0.00 1.37 0.00 94 1012.3
20260510034503 12 312 1.6 6.4 0.00 1.37 0.00 94 1012.1
20260510034003 12 295 3.2 8.0 0.00 1.37 0.00 94 1012.5
20260510033503 12 311 4.8 9.7 0.00 1.37 0.00 94 1012.2
20260510033003 12 321 3.2 9.7 0.00 1.37 0.00 94 1012.3
20260510032718 12 321 3.2 9.7 0.00 1.37 0.00 94 1012.2
20260510032003 12 350 1.6 8.0 0.00 1.37 0.00 94 1012.3
20260510031718 12 31 1.6 8.0 0.00 1.37 0.00 94 1012.3
20260510031003 12 119 1.6 4.8 0.00 1.37 0.00 94 1012.2
20260510030503 12 139 1.6 4.8 0.00 1.37 0.00 94 1012.5
20260510030216 12 129 1.6 4.8 0.00 1.37 0.00 94 1012.3
20260510025717 12 67 1.6 6.4 0.00 1.37 0.00 94 1012.6
20260510025003 12 99 3.2 6.4 0.00 1.37 0.00 94 1012.6
20260510024503 12 122 3.2 6.4 0.00 1.37 0.00 94 1012.6
20260510024003 12 141 3.2 9.7 0.00 1.37 0.00 94 1012.7
20260510023503 12 149 3.2 9.7 0.00 1.37 0.00 94 1012.8
20260510023003 12 153 3.2 6.4 0.00 1.37 0.00 94 1012.8
20260510022503 12 162 3.2 6.4 0.00 1.37 0.00 94 1012.8
20260510022003 12 174 3.2 6.4 0.00 1.37 0.00 94 1012.8
20260510021503 12 141 3.2 6.4 0.00 1.37 0.00 94 1012.6
20260510021003 12 123 3.2 6.4 0.00 1.37 0.00 94 1012.7
20260510020503 12 130 3.2 6.4 0.00 1.37 0.00 94 1012.6
20260510020003 12 135 3.2 6.4 0.00 1.37 0.00 94 1012.6
20260510015717 11 140 3.2 6.4 0.00 1.37 0.00 94 1012.6
20260510015003 11 129 3.2 6.4 0.00 1.37 0.00 94 1012.5
20260510014717 11 118 3.2 6.4 0.00 1.37 0.00 94 1012.6
20260510014003 11 82 3.2 6.4 0.00 1.37 0.00 94 1012.5
20260510013503 11 94 4.8 9.7 0.00 1.37 0.00 93 1012.5
20260510013003 11 112 4.8 9.7 0.00 1.37 0.00 93 1012.5
20260510012503 11 130 4.8 8.0 0.00 1.37 0.00 93 1012.5
20260510012218 11 140 3.2 8.0 0.00 1.37 0.00 93 1012.7
20260510011503 11 135 1.6 4.8 0.00 1.37 0.00 93 1012.7
20260510011003 11 145 1.6 4.8 0.00 1.37 0.00 93 1012.7
20260510010503 11 143 1.6 4.8 0.00 1.37 0.00 93 1012.7
20260510010003 11 140 1.6 4.8 0.00 1.37 0.00 93 1012.7
20260510005504 11 140 1.6 4.8 0.00 1.37 0.00 93 1012.8
20260510005003 11 124 1.6 4.8 0.00 1.37 0.00 93 1012.7
20260510004717 11 126 1.6 4.8 0.00 1.37 0.00 93 1012.7
20260510004218 11 178 1.6 3.2 0.00 1.37 0.00 93 1012.9
20260510003503 11 167 1.6 4.8 0.00 1.37 0.00 93 1013.0
20260510003004 12 151 1.6 4.8 0.00 1.37 0.00 93 1012.9
20260510002503 12 138 1.6 4.8 0.00 1.37 0.00 93 1013.2
20260510002003 12 129 1.6 3.2 0.00 1.37 0.00 93 1013.1
20260510001503 12 110 1.6 3.2 0.00 1.37 0.00 93 1013.3
20260510001003 12 158 1.6 6.4 0.00 1.37 0.00 93 1013.3
20260510000503 12 141 3.2 6.4 0.00 1.37 0.00 93 1013.3
20260510000003 12 71 3.2 6.4 0.00 1.37 0.00 93 1013.4
20260509235503 12 56 3.2 8.0 0.00 1.37 0.00 93 1013.5
20260509235003 13 60 4.8 8.0 0.00 1.37 0.00 93 1013.3
20260509234503 13 77 3.2 8.0 0.00 1.37 0.00 93 1013.3
20260509234003 13 103 3.2 6.4 0.00 1.37 0.00 93 1013.7
20260509233503 13 128 3.2 6.4 0.00 1.37 0.00 93 1013.5
20260509233008 13 150 3.2 6.4 0.00 1.37 0.00 93 1013.8
20260509232503 13 136 3.2 6.4 0.00 1.37 0.00 93 1013.6
20260509232003 13 109 1.6 4.8 0.00 1.37 0.00 93 1013.6
20260509231503 13 75 3.2 6.4 0.00 1.37 0.00 93 1013.7
20260509231217 13 65 3.2 6.4 0.00 1.37 0.00 93 1013.7
20260509230503 13 75 3.2 6.4 0.00 1.37 0.00 92 1013.6
20260509230003 13 91 1.6 6.4 0.00 1.37 0.00 92 1013.6
20260509225503 13 96 1.6 6.4 0.00 1.37 0.00 92 1013.6
20260509225003 13 92 3.2 6.4 0.00 1.37 0.00 92 1013.8
20260509224503 13 101 3.2 6.4 0.00 1.37 0.00 92 1013.8
20260509224004 13 106 1.6 4.8 0.00 1.37 0.00 92 1013.7
20260509223503 13 91 1.6 4.8 0.00 1.37 0.00 92 1013.7
20260509223003 13 99 3.2 6.4 0.00 1.37 0.00 92 1013.7
20260509222503 13 117 3.2 6.4 0.00 1.37 0.00 92 1013.7
20260509222003 13 151 3.2 6.4 0.00 1.37 0.00 92 1013.7
20260509221503 13 189 1.6 4.8 0.00 1.37 0.00 92 1013.6
20260509221003 13 172 1.6 4.8 0.00 1.37 0.00 92 1013.7
20260509220503 13 108 3.2 6.4 0.00 1.37 0.00 92 1013.7
20260509220003 13 86 3.2 6.4 0.00 1.37 0.00 92 1013.5
20260509215503 13 129 1.6 3.2 0.00 1.37 1.37 92 1013.7
20260509215003 13 140 1.6 4.8 0.00 1.37 1.37 92 1013.7
20260509214503 13 112 1.6 6.4 0.00 1.37 1.37 92 1013.7
20260509214003 13 114 3.2 6.4 0.00 1.37 1.37 92 1013.6
20260509213503 13 110 4.8 9.7 0.00 1.37 1.37 91 1013.6
20260509213003 13 113 4.8 9.7 0.00 1.37 1.37 91 1013.6
20260509212503 13 134 1.6 8.0 0.00 1.37 1.37 91 1013.6
20260509212218 13 127 1.6 4.8 0.00 1.37 1.37 91 1013.5
20260509211503 13 22 1.6 4.8 0.00 1.37 1.37 91 1013.4
20260509211218 13 354 1.6 4.8 0.00 1.37 1.37 91 1013.7
20260509210503 13 190 1.6 4.8 0.00 1.37 1.37 91 1013.6
20260509210003 13 166 1.6 4.8 0.00 1.37 1.37 90 1013.6
20260509205503 13 137 3.2 8.0 0.00 1.37 1.37 90 1013.6
20260509205003 13 123 4.8 8.0 0.00 1.37 1.37 90 1013.5
20260509204503 13 118 3.2 8.0 0.00 1.37 1.37 90 1013.1
20260509204003 13 54 1.6 8.0 0.00 1.37 1.37 90 1013.1
20260509203503 13 339 3.2 8.0 0.00 1.37 1.37 90 1013.1
20260509203218 13 316 3.2 9.7 0.00 1.37 1.37 90 1013.0
20260509202503 13 297 4.8 12.9 0.00 1.37 1.37 90 1012.7
20260509202003 13 263 3.2 9.7 0.00 1.37 1.37 91 1012.9
20260509201503 13 56 3.2 6.4 0.00 1.37 1.37 91 1012.8
20260509201003 13 90 3.2 8.0 0.00 1.37 1.37 91 1012.5
20260509200503 13 124 4.8 9.7 0.00 1.37 1.37 91 1012.6
20260509200003 13 93 4.8 9.7 0.00 1.37 1.37 90 1012.6
20260509195503 13 14 1.6 4.8 0.00 1.37 1.37 90 1012.6
20260509195003 13 346 1.6 4.8 0.00 1.37 1.37 90 1012.3
20260509194717 13 340 1.6 4.8 0.00 1.37 1.37 90 1012.7
20260509194003 13 267 1.6 4.8 0.00 1.37 1.37 90 1012.3
20260509193717 13 218 1.6 6.4 0.00 1.37 1.37 90 1012.2
20260509193003 13 179 3.2 6.4 0.00 1.37 1.37 90 1012.0
20260509192717 13 174 3.2 6.4 0.00 1.37 1.37 90 1012.0
20260509192003 13 218 3.2 9.7 0.00 1.37 1.37 90 1011.9
20260509191503 13 203 3.2 6.4 0.00 1.37 1.37 90 1011.6
20260509191003 13 179 3.2 6.4 0.00 1.37 1.37 90 1011.5
20260509190503 13 203 1.6 4.8 0.00 1.37 1.37 90 1011.4
20260509190004 13 199 1.6 6.4 0.00 1.37 1.37 89 1011.1
20260509185503 13 169 3.2 6.4 0.00 1.37 1.37 89 1010.8
20260509185003 13 123 3.2 8.0 0.03 1.37 1.37 89 1010.8
20260509184503 13 125 4.8 11.3 0.03 1.37 1.37 88 1010.7
20260509184003 13 113 3.2 11.3 0.03 1.37 1.37 88 1010.7
20260509183503 13 104 3.2 6.4 0.03 1.37 1.37 88 1011.0
20260509183003 13 133 3.2 6.4 0.03 1.37 1.37 88 1011.1
20260509182503 13 167 3.2 6.4 0.03 1.37 1.37 88 1011.2
20260509182003 13 288 3.2 6.4 0.05 1.37 1.37 88 1011.0
20260509181503 13 331 3.2 14.5 0.05 1.37 1.37 88 1011.0
20260509181003 13 355 3.2 14.5 0.08 1.37 1.37 89 1010.6
20260509180503 13 52 3.2 6.4 0.10 1.37 1.37 90 1010.5
20260509180217 13 72 3.2 6.4 0.15 1.37 1.37 90 1010.4
20260509175503 13 256 3.2 6.4 0.23 1.37 1.37 90 1010.5
20260509175217 13 229 3.2 8.0 0.25 1.35 1.35 90 1010.3
20260509174503 13 194 3.2 8.0 0.33 1.35 1.35 91 1010.0
20260509174003 13 178 3.2 6.4 0.38 1.35 1.35 91 1009.9
20260509173503 13 117 3.2 6.4 0.41 1.35 1.35 91 1010.3
20260509173003 13 116 3.2 6.4 0.48 1.35 1.35 91 1010.4
20260509172503 13 137 3.2 6.4 0.51 1.32 1.32 91 1010.5
20260509172003 13 175 1.6 6.4 0.58 1.32 1.32 91 1010.5
20260509171503 14 292 1.6 4.8 0.66 1.32 1.32 91 1010.5
20260509171003 14 37 1.6 4.8 0.74 1.30 1.30 91 1010.9
20260509170504 14 63 1.6 4.8 0.76 1.24 1.24 91 1011.3
20260509170003 14 111 1.6 6.4 0.74 1.19 1.19 91 1011.8
20260509165718 14 145 3.2 6.4 0.74 1.17 1.17 91 1011.6
20260509165003 14 158 1.6 6.4 0.71 1.09 1.09 91 1012.2
20260509164503 14 78 1.6 3.2 0.69 1.04 1.04 90 1012.2
20260509164003 14 68 1.6 3.2 0.66 0.97 0.97 90 1012.1
20260509163503 14 84 1.6 3.2 0.61 0.94 0.94 90 1012.3
20260509163216 14 99 1.6 8.0 0.58 0.89 0.89 90 1012.6
20260509162503 14 158 4.8 9.7 0.53 0.81 0.81 90 1013.0
20260509162216 14 162 6.4 11.3 0.48 0.76 0.79 90 1013.1
20260509161503 14 157 8.0 17.7 0.38 0.66 0.66 90 1013.1
20260509161003 14 163 9.7 19.3 0.30 0.56 0.56 90 1013.2
20260509160503 15 207 8.0 19.3 0.28 0.51 0.51 89 1013.6
20260509160003 15 229 8.0 16.1 0.28 0.46 0.46 89 1013.7
20260509155717 15 231 8.0 14.5 0.28 0.43 0.43 89 1013.3
20260509155003 15 226 6.4 11.3 0.23 0.36 0.36 89 1012.8
20260509154503 15 184 6.4 14.5 0.23 0.33 0.33 88 1012.3
20260509154218 15 169 6.4 14.5 0.20 0.33 0.33 88 1012.2
20260509153717 15 159 6.4 14.5 0.18 0.30 0.30 88 1012.1
20260509153003 15 147 4.8 11.3 0.18 0.30 0.30 88 1011.5
20260509152503 15 147 3.2 8.0 0.18 0.28 0.28 88 1011.1
20260509152218 15 142 4.8 8.0 0.18 0.28 0.28 88 1010.9
20260509151717 15 157 4.8 8.0 0.20 0.28 0.28 88 1010.5
20260509151003 15 175 3.2 8.0 0.20 0.25 0.25 88 1010.0
20260509150503 15 143 4.8 8.0 0.20 0.20 0.20 87 1010.3
20260509150003 15 131 3.2 8.0 0.18 0.18 0.18 87 1010.5
20260509145503 15 79 3.2 9.7 0.15 0.15 0.15 87 1010.6
20260509145003 15 42 4.8 9.7 0.13 0.13 0.13 87 1010.6
20260509144503 15 56 4.8 9.7 0.13 0.13 0.13 86 1011.0
20260509144003 15 96 4.8 9.7 0.13 0.13 0.13 86 1011.8
20260509143503 15 95 4.8 9.7 0.10 0.10 0.10 86 1012.1
20260509143218 15 87 4.8 12.9 0.10 0.10 0.10 85 1012.6
20260509142503 15 95 6.4 12.9 0.10 0.10 0.10 84 1013.1
20260509142003 16 110 6.4 11.3 0.08 0.08 0.08 82 1013.2
20260509141503 16 123 6.4 12.9 0.08 0.08 0.08 78 1013.4
20260509141003 17 122 6.4 12.9 0.05 0.05 0.05 74 1013.2
20260509140503 17 138 6.4 11.3 0.00 0.00 0.00 68 1013.4
20260509140003 17 149 8.0 11.3 0.00 0.00 0.00 66 1013.3
20260509135717 17 150 8.0 11.3 0.00 0.00 0.00 66 1013.5
20260509135003 17 135 4.8 9.7 0.00 0.00 0.00 65 1013.3
20260509134503 18 119 3.2 8.0 0.00 0.00 0.00 63 1013.0
20260509134004 18 115 3.2 9.7 0.00 0.00 0.00 63 1012.8
20260509133503 17 89 4.8 14.5 0.00 0.00 0.00 64 1012.5
20260509133217 17 80 4.8 14.5 0.00 0.00 0.00 63 1012.5
20260509132503 18 85 4.8 16.1 0.00 0.00 0.00 64 1012.0
20260509132221 17 78 6.4 16.1 0.00 0.00 0.00 65 1012.0
20260509131503 17 99 8.0 20.9 0.00 0.00 0.00 65 1011.8
20260509131003 17 98 9.7 25.7 0.00 0.00 0.00 65 1011.8
20260509130503 17 102 11.3 25.7 0.00 0.00 0.00 65 1012.1
20260509130003 17 102 11.3 22.5 0.00 0.00 0.00 65 1012.1
20260509125503 17 102 9.7 17.7 0.00 0.00 0.00 65 1012.2
20260509125003 18 104 9.7 19.3 0.00 0.00 0.00 65 1011.9
20260509124503 18 90 8.0 19.3 0.00 0.00 0.00 65 1012.2
20260509124003 17 79 6.4 14.5 0.00 0.00 0.00 65 1012.0
20260509123503 18 98 6.4 17.7 0.00 0.00 0.00 66 1012.5
20260509123003 18 92 8.0 17.7 0.00 0.00 0.00 66 1012.6
20260509122503 18 85 9.7 20.9 0.00 0.00 0.00 66 1012.8
20260509122003 18 93 9.7 20.9 0.00 0.00 0.00 66 1012.8
20260509121718 18 95 9.7 20.9 0.00 0.00 0.00 65 1013.0
20260509121003 18 97 8.0 17.7 0.00 0.00 0.00 64 1013.1
20260509120503 18 100 9.7 17.7 0.00 0.00 0.00 65 1013.2
20260509120003 17 101 9.7 20.9 0.00 0.00 0.00 65 1013.3
20260509115503 18 106 9.7 20.9 0.00 0.00 0.00 65 1013.7
20260509115003 18 108 9.7 20.9 0.00 0.00 0.00 64 1013.7
20260509114503 18 104 11.3 25.7 0.00 0.00 0.00 65 1014.1
20260509114004 18 107 11.3 25.7 0.00 0.00 0.00 65 1014.0
20260509113503 18 109 12.9 27.4 0.00 0.00 0.00 65 1013.9
20260509113217 18 109 12.9 27.4 0.00 0.00 0.00 64 1014.0
20260509112504 18 107 12.9 24.1 0.00 0.00 0.00 65 1014.2
20260509112003 18 108 11.3 24.1 0.00 0.00 0.00 65 1014.2
20260509111503 18 103 11.3 20.9 0.00 0.00 0.00 69 1014.1
20260509111216 18 99 11.3 20.9 0.00 0.00 0.00 69 1014.0
20260509110503 17 104 12.9 27.4 0.00 0.00 0.00 70 1013.8
20260509110003 17 110 14.5 27.4 0.00 0.00 0.00 70 1013.9
20260509105503 17 112 14.5 25.7 0.00 0.00 0.00 70 1014.0
20260509105003 17 108 12.9 24.1 0.00 0.00 0.00 71 1014.0
20260509104717 18 105 12.9 27.4 0.00 0.00 0.00 72 1013.8
20260509104218 17 103 12.9 27.4 0.00 0.00 0.00 73 1013.9
20260509103503 17 112 14.5 24.1 0.00 0.00 0.00 73 1014.0
20260509103003 17 119 12.9 24.1 0.00 0.00 0.00 73 1014.1
20260509102503 18 106 11.3 25.7 0.00 0.00 0.00 68 1013.9
20260509102003 18 98 11.3 25.7 0.00 0.00 0.00 68 1013.9
20260509101503 18 95 11.3 24.1 0.00 0.00 0.00 67 1013.9
20260509101218 18 92 9.7 20.9 0.00 0.00 0.00 68 1013.8
20260509100503 18 90 9.7 17.7 0.00 0.00 0.00 66 1013.9
20260509100004 18 97 8.0 17.7 0.00 0.00 0.00 67 1013.9
20260509095503 18 106 6.4 17.7 0.00 0.00 0.00 66 1014.1
20260509095003 18 99 8.0 19.3 0.00 0.00 0.00 66 1013.7
20260509094717 18 74 8.0 19.3 0.00 0.00 0.00 67 1013.7
20260509094003 17 48 6.4 14.5 0.00 0.00 0.00 70 1013.7
20260509093503 17 54 6.4 12.9 0.00 0.00 0.00 71 1013.7
20260509093003 18 63 6.4 14.5 0.00 0.00 0.00 72 1013.7
20260509092503 18 71 6.4 14.5 0.00 0.00 0.00 72 1013.6
20260509092003 18 93 9.7 19.3 0.00 0.00 0.00 70 1013.5